Tracking 19564 objects as of 20-Mar-2019
HD Live streaming from Space Station
objects crossing your sky now

OPS 7613 (P/L 1)

Track OPS 7613 (P/L 1) now!
10-day predictions
OPS 7613 (P/L 1) is classified as:


NORAD ID: 4256
Int'l Code: 1969-082B
Perigee: 890.8 km
Apogee: 922.7 km
Inclination: 70.0 °
Period: 103.0 minutes
Semi major axis: 7277 km
RCS: 0.5333 m2 (medium)
Launch date: September 30, 1969
Source: United States (US)
Launch site: AIR FORCE WESTERN TEST RANGE (AFWTR)
aabbcc
Your satellite tracking list
Your tracking list is empty




NASA's NSSDC Master Catalog

Two Line Element Set (TLE):
1  4256U 69082B   19077.86586698 -.00000024 +00000-0 +20442-4 0  9995
2  4256 070.0083 246.5556 0021945 286.3241 073.5452 13.98323010520325
Source of the keplerian elements: AFSPC